Regional Weather Roundup
Issued by NWS

Home | Current Version | Previous Version | Graphics & Text | Print | Product List | Glossary On
Versions: 1 2 3 4 5 6 7 8 9 10 11 12 13 14 15 16 17 18 19 20 21 22 23 24 25 26 27 28 29 30 31 32 33 34 35 36 37 38 39 40 41 42 43 44 45 46 47 48 49 50
000
ASUS43 KOAX 302202
RWRNE

WEATHER ROUNDUP FOR NEBRASKA
NATIONAL WEATHER SERVICE OMAHA NE
500 PM CDT SAT JUL 30 2016

NOTES: SATELLITE DATA IS BEING USED TO AUGMENT CLOUD COVER ABOVE
       12000 FEET.
       "FAIR" INDICATES FEW OR NO CLOUDS BELOW 12,000 FEET WITH NO
       SIGNIFICANT WEATHER AND/OR OBSTRUCTIONS TO VISIBILITY.

  * THESE STATIONS DO NOT REPORT WEATHER SUCH AS RAIN...SNOW OR FOG.

NEZ001>004-019>022-054>056-302300-
NEBRASKA PANHANDLE

CITY           SKY/WX    TMP DP  RH WIND       PRES   REMARKS
SCOTTSBLUFF    SUNNY     89  60  37 SE17      29.92F
ALLIANCE       SUNNY     86  59  39 SE15      29.94F
CHADRON        SUNNY     92  56  29 S15       29.86F HX  90
KIMBALL        SUNNY     86  56  35 SE10G16   30.00F
SIDNEY         SUNNY     88  54  31 SE13G18   29.99F
$$

NEZ057>060-069>072-079>082-302300-
SOUTHWEST NEBRASKA

CITY           SKY/WX    TMP DP  RH WIND       PRES   REMARKS
NORTH PLATTE   MOSUNNY   85  67  54 SE8       29.93F
IMPERIAL       SUNNY     89  58  34 S16       29.92F
LEXINGTON      SUNNY     84  69  58 SE12      29.94F
MCCOOK         SUNNY     91  62  37 SE20      29.90F HX  91
OGALLALA       SUNNY     89  60  38 SE12G17   29.93F
$$

NEZ005>010-023>029-035>040-094-302300-
NORTH CENTRAL NEBRASKA

CITY           SKY/WX    TMP DP  RH WIND       PRES   REMARKS
VALENTINE      MOSUNNY   88  59  37 S17       29.90F
AINSWORTH      MOSUNNY   84  67  55 S12       29.93F
BROKEN BOW     MOSUNNY   82  70  66 S12       29.95F
O`NEILL        SUNNY     81  64  55 S14G21    29.95F
ORD            SUNNY     82  67  60 SE12      29.93F
THEDFORD       SUNNY     86  66  51 S12       29.95F
$$

NEZ041-046>049-061>064-073>077-083>087-302300-
SOUTH CENTRAL NEBRASKA

CITY           SKY/WX    TMP DP  RH WIND       PRES   REMARKS
GRAND ISLAND   MOSUNNY   82  69  64 SE9       29.95F
AURORA         CLOUDY    80  72  75 SE9       29.96F
HASTINGS       MOSUNNY   85  66  53 S12       29.96F
HEBRON         SUNNY     82  66  59 SE8       29.96S
HOLDREGE       SUNNY     85  63  47 S14       29.94F
KEARNEY *      MOSUNNY   84  70  61 SE13      29.95F
YORK           MOSUNNY   79  68  69 SE8       29.97F
$$

NEZ011>018-030>034-042>045-302300-
NORTHEAST NEBRASKA

CITY           SKY/WX    TMP DP  RH WIND       PRES   REMARKS
NORFOLK        MOSUNNY   79  62  56 SE13      29.96F
ALBION         SUNNY     78  65  64 SE12      29.97F
BLAIR          MOSUNNY   78  65  62 SE3       29.98S
FREMONT        SUNNY     80  62  53 S8        29.98F
TEKAMAH        MOSUNNY   82  62  50 SE8       29.96F
WAYNE          MOSUNNY   79  63  58 SE12      29.98S
$$

NEZ050>053-065>068-078-088>093-302300-
SOUTHEAST NEBRASKA

CITY           SKY/WX    TMP DP  RH WIND       PRES   REMARKS
LINCOLN        MOSUNNY   80  66  62 SE9       29.97F
OMAHA EPPLEY   MOSUNNY   82  64  54 E8        29.97F
BEATRICE       SUNNY     81  66  59 E7        29.97F HAZE
FALLS CITY     PTSUNNY   80  68  66 E7        29.97F
NEBRASKA CITY  CLOUDY    76  67  74 E3        29.99S
PLATTSMOUTH    MOSUNNY   79  65  62 SE8       29.98F
$$

NEZ044-045-051>053-067-302300-
OMAHA AREA

CITY           SKY/WX    TMP DP  RH WIND       PRES   REMARKS
OMAHA EPPLEY   MOSUNNY   82  64  54 E8        29.97F
BLAIR          MOSUNNY   78  65  62 SE3       29.98S
FREMONT        SUNNY     80  62  53 S8        29.98F
MILLARD        PTSUNNY   81  66  60 SE8       29.97F
OFFUTT AFB     MOSUNNY   82  65  56 SE8       29.97
PLATTSMOUTH    MOSUNNY   79  65  62 SE8       29.98F
WAHOO          FAIR      78  65  62 SE8       29.97F
$$




USA.gov is the U.S. government's official web portal to all federal, state and local government web resources and services.